Regional Weather Roundup
Issued by NWS Sterling, VA

Home | Current Version | Previous Version | Text Only | Print | Product List | Glossary On
Versions: 1 2 3 4 5 6 7 8 9 10 11 12 13 14 15 16 17 18 19 20 21 22 23 24 25 26 27
000
ASUS41 KLWX 061710
RWRLWX

REGIONAL WEATHER ROUNDUP
NATIONAL WEATHER SERVICE BALTIMORE MD/WASHINGTON DC
100 PM EDT FRI MAY 06 2016

Note: "FAIR" indicates few or no clouds below 12,000 feet
with no significant weather and/or obstructions to visibility.
 TC=TEMPERATURE CELSIUS

 * =Non NWS site. Station does not report precipitation (e.g. rain,
    snow, etc.), thunder, or fog.

DCZ001-MDZ009-015-VAZ040>042-051-053>054-061800-
WASHINGTON METRO

CITY           SKY/WX    TMP DP  RH WIND       PRES   REMARKS
WASHINGTON NAT RAIN      51  48  89 E10       29.69S FOG
DULLES         RAIN      53  51  93 W10       29.67F FOG
ANDREWS AFB    LGT RAIN  50  48  93 NE5       29.67S
FT BELVOIR     LGT RAIN  54  50  87 VRB5      29.68S
QUANTICO       LGT RAIN  56  52  86 N8        29.69F
COLLEGE PARK*  CLOUDY    50  46  87 CALM      29.68F
LEESBURG*      RAIN      54  54 100 N14G20    29.70S
MANASSAS*      LGT RAIN  55  54  94 N8        29.69F
GAITHERSBURG*  CLOUDY    50  46  87 NE3       29.72S

$$

MDZ006>007-011-014-061800-
BALTIMORE METRO

CITY           SKY/WX    TMP DP  RH WIND       PRES   REMARKS
BWI AIRPORT    LGT RAIN  51  47  86 NW5       29.67F FOG
MD SCIENCE CTR   N/A     52  48  86 MISG      29.67F
MARTIN STATE   DRIZZLE   54  52  94 NW5       29.67F
ANNAPOLIS      LGT RAIN  51  47  86 NW3       29.66F
FORT MEADE*    CLOUDY    50  46  87 CALM      29.70F

$$

MDZ012-015-019>023-061800-
MARYLAND EASTERN SHORE

CITY           SKY/WX    TMP DP  RH WIND       PRES   REMARKS
OCEAN CITY     LGT RAIN  52  49  89 VRB6      29.66F
SALISBURY      LGT RAIN  51  49  92 SW3       29.66S FOG
CAMBRIDGE*     CLOUDY    50  46  87 W3        29.65F
EASTON*        LGT RAIN N/A N/A N/A CALM      29.69F

$$

MDZ017>025-061800-
SOUTHERN MARYLAND

CITY           SKY/WX    TMP DP  RH WIND       PRES   REMARKS
PATUXENT RIVER LGT RAIN  50  47  89 N9        29.67S FOG
ST INIGOES     RAIN      51  48  89 CALM      29.67S FOG
LEONARDTOWN*   CLOUDY    50  46  87 CALM      29.69S

$$

MDZ003>005-061800-
NORTH CENTRAL MARYLAND

CITY           SKY/WX    TMP DP  RH WIND       PRES   REMARKS
FREDERICK*     RAIN      54  54 100 N9        29.72S
HAGERSTOWN APT LGT RAIN  53  48  83 N9        29.70S
WESTMINSTER*   RAIN      50  46  87 N9        29.68F

$$

MDZ501>502-061800-
WESTERN MARYLAND

CITY           SKY/WX    TMP DP  RH WIND       PRES   REMARKS
OAKLAND*       CLOUDY    50  36  57 N14G21    29.75F
CUMBERLAND*    PTSUNNY   59  41  51 N8G16     29.76F

$$

VAZ025>031-061800-
SHENANDOAH VALLEY

CITY           SKY/WX    TMP DP  RH WIND       PRES   REMARKS
WINCHESTER*    RAIN      54  50  87 NW5       29.71F
FRONT ROYAL*   CLOUDY    54  50  87 CALM      29.70F
LURAY*         DRIZZLE   54  52  94 CALM      29.72F
NEW MARKET*    CLOUDY    55  47  76 CALM      29.72F
STAUNTON*      CLOUDY    58  49  71 N7        29.75S
WAYNESBORO*    CLOUDY    55  46  72 N10       29.73S

$$

WVZ021-048>050-054>055-061800-
EASTERN WEST VIRGINIA PANHANDLE

CITY           SKY/WX    TMP DP  RH WIND       PRES   REMARKS
MARTINSBURG    LGT RAIN  53  49  86 NW10      29.71S FOG
PETERSBURG*    DRIZZLE   59  45  58 NW7G16    29.74F

$$

VAZ036>039-050-061800-
CENTRAL FOOTHILLS

CITY           SKY/WX    TMP DP  RH WIND       PRES   REMARKS
CHARLOTTESVILL CLOUDY    57  50  77 VRB5      29.71F
CULPEPER*      LGT RAIN  55  53  93 NW6       29.71F
ORANGE*        DRIZZLE   55  54  94 SW9       29.72F
GORDONSVILLE*  CLOUDY    55  52  89 N6        29.70F
WARRENTON*     RAIN      55  49  80 NW8       29.69F

$$

VAZ055>057-061800-
NORTH AND CENTRAL PIEDMONT

CITY           SKY/WX    TMP DP  RH WIND       PRES   REMARKS
FREDERICKSBRG* RAIN      55  54  94 N10G17    29.68F
STAFFORD*      HVY RAIN  53  49  86 N6        29.73S

$$

NCZ024-NYZ072-PAZ021-071-VAZ022-071-061800-
OTHER REGIONAL OBSERVATIONS

CITY           SKY/WX    TMP DP  RH WIND       PRES   REMARKS
NEW YORK CITY  CLOUDY    50  46  86 E6G16     29.75S FOG
PHILADELPHIA   LGT RAIN  51  47  86 NE20      29.65F
PITTSBURGH     PTSUNNY   67  37  33 N16G26    29.79F
ROANOKE        CLOUDY    59  43  55 NW10      29.78S
RICHMOND       LGT RAIN  53  51  93 SE5       29.69S
RALEIGH        CLOUDY    62  48  60 N13G20    29.75S

$$

ANZ530>537-061800-
MARINE OBSERVATIONS

STATION/POSITION TIME  TEMP    WIND        PRES
                       AIR SEA DIR/SP/G
                 (UTC) (F)     (DEG/KT/KT) (MB)
THOMAS PT LIGHT  1700   50 57  350/  8/ 10 1005.8F
BALT KEY BRIDGE  1600   50      30/  7/  9 1004.8R
COVE POINT       1600   49      70/ 10/ 12 1005.2R
LEWISETTA        1600   51 60  280/  6/  7 1005.0R
SOLOMONS ISLAND  1600   51 59  330/  7/  9   N/A
PINEY POINT      1600          330/  6/  8   N/A

$$





USA.gov is the U.S. government's official web portal to all federal, state and local government web resources and services.